Regional Weather Roundup
Issued by NWS

Home | Current Version | Previous Version | Graphics & Text | Print | Product List | Glossary On
Versions: 1 2 3 4 5 6 7 8 9 10 11 12 13 14 15 16 17 18 19 20 21 22 23 24 25 26 27 28 29 30 31 32 33 34 35 36 37 38 39 40 41 42 43 44 45 46 47 48 49 50
000
ASUS43 KDTX 211410
RWRMI
MICHIGAN HOURLY REGIONAL WEATHER ROUNDUP
NATIONAL WEATHER SERVICE DETROIT/PONTIAC MI
1000 AM EDT TUE OCT 21 2014

NOTE: "FAIR" INDICATES FEW OR NO CLOUDS BELOW 12,000 FEET WITH NO
SIGNIFICANT WEATHER AND/OR OBSTRUCTION TO VISIBILITY.

MIZ047>049-052>055-059>063-066>070-074>076-081>083-211500-
SOUTHEAST LOWER MICHIGAN

CITY           SKY/WX    TMP DP  RH WIND       PRES   REMARKS
ADRIAN         CLOUDY    48  44  86 N10       30.02R
ALMA           CLOUDY    46  38  75 N7        30.08R
ANN ARBOR      CLOUDY    48  42  80 N14G21    30.01R
BAD AXE        CLOUDY    44  41  89 N14G22    30.04R
CARO           CLOUDY    45  39  79 N15       30.04R
DETROIT CITY   CLOUDY    50  39  66 N14G24    30.00R
DETROIT        CLOUDY    48  43  82 N9        30.00R
FLINT          CLOUDY    47  42  83 N13       30.05R
GROSSE ILE     CLOUDY    48  45  87 N10G17    29.98R
HILLSDALE      DRIZZLE   46  46 100 N9        30.02R
HOWELL         CLOUDY    45  42  91 N9        30.03R

CITY           SKY/WX    TMP DP  RH WIND       PRES   REMARKS
JACKSON        PTSUNNY   45  43  93 N7        30.04R
LAMBERTVILLE   CLOUDY    48  45  87 NW9       30.00R
LANSING        LGT RAIN  46  40  79 N10       30.07R
LAPEER         CLOUDY    45  38  78 N9G20     30.02R
MASON          CLOUDY    45  42  89 N9G17     30.04R
MONROE         RAIN      48  46  93 N8        29.98R
MT. CLEMENS    CLOUDY    47  43  87 N15       29.97R
PONTIAC        LGT RAIN  45  41  86 N13       30.00R
PORT HOPE        N/A     46  41  82 VRB7G28   30.02R
PORT HURON     CLOUDY    46  41  81 N9G18     29.98R
TRI CITIES     LGT RAIN  47  39  74 N12       30.08R
TROY           CLOUDY    47  42  84 N7G16     30.02R
SAGINAW HB     CLOUDY    46  37  71 N14G20    30.06R
$$
MIZ043>046-050>051-056>058-064>065-071>073-077>080-211500-
SOUTHWEST LOWER MICHIGAN

CITY           SKY/WX    TMP DP  RH WIND       PRES   REMARKS
BATTLE CREEK   CLOUDY    47  44  90 N8        30.06R FOG
BENTON HARBOR  LGT RAIN  47  46  97 NE7       30.08R FOG
BIG RAPIDS     CLOUDY    44  43  95 NE8       30.10R
COLDWATER      LGT RAIN  47  46  95 N8        30.04R
FREMONT        CLOUDY    46  40  79 N7G17     30.10R
HOLLAND        CLOUDY    50  44  80 N6        30.10R
GRAND RAPIDS   CLOUDY    48  45  89 N8        30.08R
IONIA          DRIZZLE   46  42  86 NE12G21   30.07R
KALAMAZOO      CLOUDY    47  43  86 N12       30.07R
LUDINGTON      CLOUDY    47  43  87 NE5       30.13R
MARSHALL       CLOUDY    45  43  93 N3        30.04R
MOUNT PLEASANT CLOUDY    45  39  81 N9        30.09R
MUSKEGON       CLOUDY    48  42  80 N13       30.12R
SOUTH HAVEN    CLOUDY    48  45  90 N8        30.09R
$$
MIZ016>042-211500-
NORTHERN LOWER MICHIGAN

CITY           SKY/WX    TMP DP  RH WIND       PRES   REMARKS
ALPENA         SUNNY     43  33  68 NE18G26   30.11R
BEAVER ISLAND  PTSUNNY   43  37  79 NE7       30.18R
BELLAIRE       CLOUDY    44  35  71 N7        30.15R
CADILLAC       CLOUDY    40  38  91 N6        30.10R
CHARLEVOIX     PTSUNNY   45  36  71 NE13      30.18R
FRANKFORT      CLOUDY    47  38  70 N10       30.14R
GAYLORD        CLOUDY    40  33  76 NE8       30.12R WCI  34
GRAYLING       CLOUDY    41  36  80 N9G17     30.12R
HARBOR SPRINGS SUNNY     44  32  64 NE12G17   30.16R
HOUGHTON LAKE  CLOUDY    41  36  82 N7        30.11R
MANISTEE       CLOUDY    46  37  71 N7        30.14R
OSCODA         CLOUDY    43  36  76 N21G26    30.07R
PELLSTON       SUNNY     43  32  65 NE12      30.17R
ROGERS CITY    CLOUDY    41  34  75 N9G21     30.15R
TRAVERSE CITY  CLOUDY    46  35  65 NE9       30.13R
$$
MIZ007>008-015-211500-
EASTERN UPPER MICHIGAN

CITY           SKY/WX    TMP DP  RH WIND       PRES   REMARKS
KINROSS        SUNNY     37  30  75 NE14      30.18R WCI  29
MACKINAC ISLAN SUNNY     41  32  70 NE13      30.17R
NEWBERRY       MOSUNNY   38  33  84 N10       30.19R WCI  30
S. S. MARIE    SUNNY     38  27  64 NE8       30.19R WCI  32
MUNISING         N/A     46  36  68 NE16      30.22R
$$
MIZ004>006-011>014-085-211500-
CENTRAL UPPER MICHIGAN

CITY           SKY/WX    TMP DP  RH WIND       PRES   REMARKS
MANISTIQUE     SUNNY     41  35  80 N10       30.19R
ESCANABA       MOSUNNY   43  34  70 N8        30.21R
MENOMINEE      CLOUDY    43  34  70 N12G17    30.21R
SAWYER-GWINN   CLOUDY    39  36  87 N10       30.22R WCI  32
$$
MIZ001>003-009>011-084-211500-
WESTERN UPPER MICHIGAN

CITY           SKY/WX    TMP DP  RH WIND       PRES   REMARKS
IRON MOUNTAIN  CLOUDY    40  33  76 N7        30.22R
HOUGHTON       PTSUNNY   39  30  70 CALM      30.25R
COPPER HARBOR    N/A     41  33  73 VRB5      30.27R
IRONWOOD       CLOUDY    37  34  87 E6        30.23R WCI  33
$$

ABBREVIATIONS USED IN REMARKS
   TC - TEMPERATURE IN CELSIUS
  WCI - WIND CHILL INDEX
   HX - HEAT INDEX
  VSB - VISIBILITY



USA.gov is the U.S. government's official web portal to all federal, state and local government web resources and services.